Location: All Nations United Methodist Church
(33.0215°N, 96.7483°W)
Time: 14:01:50
(UTC+00:00)

Cosmos 1346 Rocket - Pass Details

Date: 24 January 2021
Orbit: 531 x 546 km, 81.2° (Epoch: 06 March)

Event Time Altitude Azimuth Distance (km) Brightness Sun altitude
Rises 12:40:07 0° 352° (N) 2,704 6.1 -10.1°
Reaches altitude 10° 12:42:17 10° 353° (N) 1,810 5.2 -9.6°
Maximum altitude 12:46:16 87° 84° (E) 550 2.8 -8.8°
Drops below altitude 10° 12:50:15 10° 172° (S) 1,806 5.8 -8.0°
Sets 12:52:24 0° 172° (S) 2,696 6.7 -7.6°
